#timestamp,LO_Frequency,Hit,StdDev 
1545868815.2,286047002.8,N
1545868835.9,286047000.6,N
1545868855.7,286047002.8,N
1545868875.6,286046999.9,N
1545868895.4,286047000.6,N
1545868915.2,286047002.6,N
1545868935.1,286046999.7,N
1545868936.0,286046999.7,N
1545868955.8,286046999.7,N
1545868975.7,286047002.8,N
1545868995.5,286047000.1,N
1545869015.3,286047001.4,N
1545869035.2,286047002.2,N
1545869055.0,286047002.6,N
1545869055.9,286047002.6,N
1545869075.8,286047001.0,N
1545869095.6,286047001.2,N
1545869115.4,286047002.4,N
1545869135.3,286047002.4,N
1545869155.1,286047000.1,N
1545869175.8,286047002.3,N
1545869195.7,286047002.5,N
1545869215.5,286047000.5,N
1545869235.4,286046998.3,N
1545869255.2,286047002.5,N
1545869275.0,286047000.0,N
1545869275.9,286047000.0,N
1545869295.8,286047000.0,N
1545869315.6,286047002.7,N
1545869335.4,286047002.0,N
1545869355.3,286047003.6,N
1545869375.1,286047005.5,Y
1545869395.9,286047002.1,P
1545869415.7,286047002.5,P
1545869435.5,286046998.7,N
1545869455.4,286046997.3,N
1545869475.2,286046998.4,N
1545869495.1,286046999.2,N
1545869496.0,286046999.2,N
1545869515.8,286047000.9,N
1545869535.6,286047000.9,N
1545869555.5,286046998.8,N
1545869575.3,286046998.4,N
1545869595.1,286046999.0,N
1545869615.9,286047000.4,N
1545869635.7,286047000.3,N
1545869655.6,286047002.2,N
1545869675.4,286047002.5,N
1545869695.2,286046998.5,N
1545869715.1,286047000.6,N
1545869716.0,286047000.6,N
1545869735.8,286046998.5,N
1545869755.7,286046998.2,N
1545869775.5,286047001.0,N
1545869795.3,286046998.4,N
1545869815.2,286046998.1,N
1545869835.0,286046998.2,N
1545869835.9,286046998.2,N
1545869855.7,286046998.6,N
1545869875.6,286047000.9,N
1545869895.4,286047001.2,N
1545869915.3,286047000.8,N
1545869935.1,286047000.4,N
1545869936.0,286047000.4,N
1545869955.8,286046998.2,N
1545869975.7,286046999.4,N
1545869995.5,286046999.8,N
1545870015.3,286047000.4,N
1545870035.2,286047002.8,N
1545870055.0,286046999.8,N
1545870055.9,286046999.8,N
1545870075.8,286046999.9,N
1545870095.6,286047000.4,N
1545870115.4,286047002.0,N
1545870135.3,286046999.7,N
1545870155.1,286047000.6,N
1545870175.9,286047000.6,N
1545870195.7,286047001.1,N
1545870215.5,286046998.9,N
1545870235.4,286046997.0,N
1545870255.2,286046996.5,N
1545870275.0,286047001.2,N
1545870275.9,286047001.2,N
1545870295.8,286047001.1,N
1545870315.6,286047000.0,N
1545870335.5,286047002.3,N
1545870355.3,286047002.6,N
1545870375.1,286046999.9,N
1545870395.9,286047002.4,N
1545870415.7,286047000.7,N
1545870435.6,286047000.9,N
1545870455.4,286047000.6,N
1545870475.2,286047001.0,N
1545870495.1,286047000.5,N
1545870496.0,286047000.5,N
1545870515.8,286046999.9,N
1545870535.6,286047000.8,N
1545870555.5,286047001.2,N
1545870575.3,286046998.6,N
1545870595.2,286047000.3,N
1545870615.9,286047000.9,N
1545870635.7,286047002.2,N
1545870655.6,286047000.4,N
1545870675.4,286047002.1,N
1545870695.3,286047001.6,N
1545870715.1,286047000.1,N
1545870716.0,286047000.1,N
1545870735.8,286047000.0,N
1545870755.7,286046999.9,N
1545870775.5,286047001.8,N
1545870795.3,286047000.1,N
1545870815.2,286047000.1,N
1545870835.0,286047000.0,N
1545870835.9,286047000.0,N
1545870855.8,286047001.0,N
1545870875.6,286046999.3,N
1545870895.4,286046996.5,Y
1545870915.3,286046996.5,P
1545870935.1,286046999.3,N
1545870955.9,286047001.0,N
1545870975.7,286047000.8,N
1545870995.5,286046998.1,N
1545871015.4,286046997.8,N
1545871035.2,286046997.2,N
1545871055.0,286046997.4,N
1545871055.9,286046997.4,N
1545871075.8,286046999.0,N
1545871095.6,286047001.0,N
1545871115.5,286047002.5,N
1545871135.3,286047002.2,N
1545871155.1,286047002.2,N
1545871175.9,286047003.9,N
1545871195.7,286047004.4,N
1545871215.6,286047001.5,N
1545871235.4,286047004.0,N
1545871255.2,286047003.7,N
1545871275.1,286047001.8,N
1545871276.0,286047001.8,N
1545871295.8,286047002.4,N
1545871315.6,286047002.3,N
1545871335.5,286047001.9,N
1545871355.3,286047005.4,N
1545871375.2,286047004.1,N
1545871395.9,286047002.9,N
1545871415.7,286047002.5,N
1545871435.6,286047000.4,N
1545871455.4,286047002.0,N
1545871475.2,286047002.7,N
1545871495.1,286047002.5,N
1545871496.0,286047002.5,N
1545871515.8,286047004.4,N
1545871535.7,286047002.6,N
1545871555.5,286047000.4,N
1545871575.3,286047002.8,N
1545871595.2,286047000.3,N
1545871615.0,286047001.8,N
1545871615.9,286047001.8,N
1545871635.8,286047001.6,N
1545871655.6,286047001.9,N
1545871675.4,286047002.0,N
1545871695.3,286047001.3,N
1545871715.1,286047002.1,N
1545871735.8,286047002.5,N
1545871755.7,286047002.8,N
1545871775.5,286047004.3,Y
1545871795.4,286047002.8,P
1545871815.2,286047000.4,N
1545871835.0,286046999.9,N
1545871835.9,286046999.9,N
1545871855.8,286047000.0,N
1545871875.6,286046998.3,N
1545871895.4,286046996.5,N
1545871915.3,286046995.3,N
1545871935.1,286046996.6,N
1545871955.9,286046997.3,N
1545871975.7,286046997.2,N
1545871995.5,286046996.9,N
1545872015.4,286046998.6,N
1545872035.2,286046995.3,N
1545872055.0,286046997.6,N
1545872056.0,286046997.6,N
1545872075.8,286046997.9,N
1545872095.6,286046996.0,N
1545872115.5,286046995.1,N
1545872135.3,286046996.3,N
1545872155.1,286046993.5,Y
1545872175.9,286046997.3,P
1545872195.7,286046997.0,P
1545872215.6,286046997.3,P
1545872235.4,286046995.7,Y
1545872255.2,286046998.9,P
1545872275.1,286046999.2,N
1545872276.0,286046999.2,N
1545872295.8,286046996.5,Y
1545872315.7,286046998.7,P
1545872335.5,286046999.7,P
1545872355.3,286047000.9,N
1545872375.2,286047001.9,N
1545872395.0,286047004.0,Y
1545872395.9,286047004.0,P
